BRUTUS Weather Reports


time (UTC)temp
C
wind
direction
speed
KPH
gust
KPH
rain 1hr
cm
rain 24hr
cm
rain mn
cm
humidity
%
barometer
mb
20260508194655 18 351 6.4 0.0 0.00 0.00 0.00 53 1009.2
20260508194413 18 339 6.4 0.0 0.00 0.00 0.00 52 1009.2
20260508194100 18 15 8.0 0.0 0.00 0.00 0.00 53 1009.3
20260508193822 18 342 9.7 0.0 0.00 0.00 0.00 52 1009.3
20260508193528 18 343 9.7 0.0 0.00 0.00 0.00 52 1009.4
20260508193259 18 339 9.7 0.0 0.00 0.00 0.00 52 1009.4
20260508192956 18 34 9.7 0.0 0.00 0.00 0.00 51 1009.5
20260508192702 18 27 8.0 0.0 0.00 0.00 0.00 50 1009.5
20260508192425 18 350 8.0 0.0 0.00 0.00 0.00 52 1009.6
20260508192148 18 335 6.4 0.0 0.00 0.00 0.00 51 1009.6
20260508191916 18 333 8.0 0.0 0.00 0.00 0.00 52 1009.6
20260508191638 18 343 6.4 0.0 0.00 0.00 0.00 53 1009.6
20260508191344 18 335 6.4 0.0 0.00 0.00 0.00 53 1009.7
20260508191108 18 355 8.0 0.0 0.00 0.00 0.00 52 1009.7
20260508190823 18 341 6.4 0.0 0.00 0.00 0.00 53 1009.7
20260508190536 18 305 8.0 0.0 0.00 0.00 0.00 53 1009.7
20260508190247 18 360 8.0 0.0 0.00 0.00 0.00 53 1009.7
20260508190010 18 357 9.7 0.0 0.00 0.00 0.00 53 1009.8
20260508185732 18 35 8.0 0.0 0.00 0.00 0.00 53 1009.8
20260508185448 18 359 6.4 0.0 0.00 0.00 0.00 52 1009.9
20260508185156 18 30 4.8 0.0 0.00 0.00 0.00 53 1009.9
20260508184920 18 360 6.4 0.0 0.00 0.00 0.00 52 1009.9
20260508184630 18 308 3.2 0.0 0.00 0.00 0.00 55 1009.9
20260508184404 18 320 4.8 0.0 0.00 0.00 0.00 55 1009.9
20260508184121 19 332 6.4 0.0 0.00 0.00 0.00 53 1009.9
20260508183817 19 303 4.8 0.0 0.00 0.00 0.00 53 1009.9
20260508183535 19 346 9.7 0.0 0.00 0.00 0.00 55 1009.9
20260508183240 18 347 9.7 0.0 0.00 0.00 0.00 53 1009.9
20260508182959 18 328 9.7 0.0 0.00 0.00 0.00 53 1009.9
20260508182718 18 337 9.7 0.0 0.00 0.00 0.00 51 1010.0
20260508182432 19 346 9.7 0.0 0.00 0.00 0.00 52 1010.0
20260508182147 19 335 8.0 0.0 0.00 0.00 0.00 52 1010.0
20260508181903 20 359 8.0 0.0 0.00 0.00 0.00 53 1010.0
20260508181630 19 305 8.0 0.0 0.00 0.00 0.00 53 1010.0
20260508181401 19 354 8.0 0.0 0.00 0.00 0.00 51 1010.0
20260508181122 19 342 6.4 0.0 0.00 0.00 0.00 55 1010.2
20260508180827 19 326 6.4 0.0 0.00 0.00 0.00 54 1010.3
20260508180550 19 326 6.4 0.0 0.00 0.00 0.00 54 1010.3
20260508180308 18 351 4.8 0.0 0.00 0.00 0.00 53 1010.4
20260508180026 19 33 4.8 0.0 0.00 0.00 0.00 54 1010.4
20260508175709 18 345 4.8 0.0 0.00 0.00 0.00 55 1010.5
20260508175427 18 344 6.4 0.0 0.00 0.00 0.00 55 1010.7
20260508175120 18 355 8.0 0.0 0.00 0.00 0.00 56 1010.8
20260508174840 18 1 8.0 0.0 0.00 0.00 0.00 55 1010.9
20260508174549 18 353 6.4 0.0 0.00 0.00 0.00 56 1011.0
20260508174311 17 322 6.4 0.0 0.00 0.00 0.00 56 1011.1
20260508174043 17 357 6.4 0.0 0.00 0.00 0.00 55 1011.1
20260508173809 17 108 6.4 0.0 0.00 0.00 0.00 54 1011.0
20260508173507 18 30 6.4 0.0 0.00 0.00 0.00 55 1011.2
20260508173207 18 314 4.8 0.0 0.00 0.00 0.00 55 1011.3
20260508172915 18 355 3.2 0.0 0.00 0.00 0.00 54 1011.4
20260508172629 18 337 3.2 0.0 0.00 0.00 0.00 56 1011.5
20260508172353 18 262 1.6 0.0 0.00 0.00 0.00 56 1011.4
20260508172101 18 6 1.6 0.0 0.00 0.00 0.00 54 1011.5
20260508171822 18 330 1.6 0.0 0.00 0.00 0.00 57 1011.7
20260508171556 18 34 3.2 0.0 0.00 0.00 0.00 59 1011.8
20260508171302 17 355 3.2 0.0 0.00 0.00 0.00 59 1011.8
20260508171001 17 2 4.8 0.0 0.00 0.00 0.00 57 1011.9
20260508170655 17 329 4.8 0.0 0.00 0.00 0.00 58 1011.9
20260508170407 17 338 4.8 0.0 0.00 0.00 0.00 58 1012.0
20260508170109 17 344 4.8 0.0 0.00 0.00 0.00 59 1012.2
20260508165825 16 76 6.4 0.0 0.00 0.00 0.00 59 1012.3
20260508165555 16 339 6.4 0.0 0.00 0.00 0.00 58 1012.3
20260508165306 16 28 6.4 0.0 0.00 0.00 0.00 58 1012.4
20260508165024 16 39 4.8 0.0 0.00 0.00 0.00 59 1012.4
20260508164741 16 15 4.8 0.0 0.00 0.00 0.00 59 1012.4
20260508164518 16 18 3.2 0.0 0.00 0.00 0.00 59 1012.5
20260508164233 16 22 4.8 0.0 0.00 0.00 0.00 60 1012.4
20260508163954 16 357 4.8 0.0 0.00 0.00 0.00 59 1012.5
20260508163709 16 40 4.8 0.0 0.00 0.00 0.00 59 1012.5
20260508163425 16 14 6.4 0.0 0.00 0.00 0.00 58 1012.4
20260508163148 16 1 6.4 0.0 0.00 0.00 0.00 58 1012.4
20260508162902 16 19 8.0 0.0 0.00 0.00 0.00 57 1012.4
20260508162616 16 345 8.0 0.0 0.00 0.00 0.00 58 1012.5
20260508162331 16 328 9.7 0.0 0.00 0.00 0.00 57 1012.4
20260508162033 16 345 8.0 0.0 0.00 0.00 0.00 57 1012.5
20260508161755 16 324 8.0 0.0 0.00 0.00 0.00 56 1012.5
20260508161524 16 347 8.0 0.0 0.00 0.00 0.00 56 1012.5
20260508161247 17 76 8.0 0.0 0.00 0.00 0.00 56 1012.5
20260508160945 17 42 9.7 0.0 0.00 0.00 0.00 58 1012.6
20260508160655 16 316 11.3 0.0 0.00 0.00 0.00 57 1012.4
20260508160403 16 43 11.3 0.0 0.00 0.00 0.00 58 1012.5
20260508160128 16 31 12.9 0.0 0.00 0.00 0.00 56 1012.5
20260508155847 16 287 12.9 0.0 0.00 0.00 0.00 56 1012.5
20260508155605 16 52 12.9 0.0 0.00 0.00 0.00 56 1012.6
20260508155333 16 38 12.9 0.0 0.00 0.00 0.00 56 1012.6
20260508155058 16 32 12.9 0.0 0.00 0.00 0.00 56 1012.6
20260508154754 16 60 12.9 0.0 0.00 0.00 0.00 57 1012.7
20260508154447 16 63 11.3 0.0 0.00 0.00 0.00 57 1012.7
20260508154206 15 347 11.3 0.0 0.00 0.00 0.00 58 1012.6
20260508153910 15 4 9.7 0.0 0.00 0.00 0.00 60 1012.7
20260508153623 15 19 8.0 0.0 0.00 0.00 0.00 60 1012.7
20260508153340 15 355 6.4 0.0 0.00 0.00 0.00 61 1012.8
20260508153043 15 355 6.4 0.0 0.00 0.00 0.00 61 1012.7
20260508152746 15 350 6.4 0.0 0.00 0.00 0.00 61 1012.8
20260508152520 14 27 6.4 0.0 0.00 0.00 0.00 62 1012.7
20260508152240 14 350 6.4 0.0 0.00 0.00 0.00 61 1012.7
20260508151952 14 22 6.4 0.0 0.00 0.00 0.00 63 1012.7
20260508151653 13 349 6.4 0.0 0.00 0.00 0.00 64 1012.7
20260508151402 13 340 6.4 0.0 0.00 0.00 0.00 63 1012.7
20260508151103 13 334 4.8 0.0 0.00 0.00 0.00 64 1012.7
20260508150830 13 12 4.8 0.0 0.00 0.00 0.00 64 1012.8
20260508150530 13 357 4.8 0.0 0.00 0.00 0.00 65 1012.7
20260508150239 13 330 4.8 0.0 0.00 0.00 0.00 65 1012.7
20260508150003 12 337 4.8 0.0 0.00 0.00 0.00 65 1012.7
20260508145714 12 330 6.4 0.0 0.00 0.00 0.00 65 1012.8
20260508145432 12 358 6.4 0.0 0.00 0.00 0.00 66 1012.9
20260508145127 12 337 6.4 0.0 0.00 0.00 0.00 65 1012.9
20260508144843 12 340 6.4 0.0 0.00 0.00 0.00 66 1013.0
20260508144550 12 311 4.8 0.0 0.00 0.00 0.00 66 1013.0
20260508144242 12 297 4.8 0.0 0.00 0.00 0.00 66 1012.9
20260508143943 12 349 4.8 0.0 0.00 0.00 0.00 66 1013.0
20260508143656 12 322 3.2 0.0 0.00 0.00 0.00 68 1012.9
20260508143430 12 340 4.8 0.0 0.00 0.00 0.00 68 1012.9
20260508143150 12 337 4.8 0.0 0.00 0.00 0.00 68 1013.0
20260508142912 12 341 4.8 0.0 0.00 0.00 0.00 68 1012.9
20260508142642 11 341 6.4 0.0 0.00 0.00 0.00 68 1012.9
20260508142413 11 4 4.8 0.0 0.00 0.00 0.00 69 1012.9
20260508142112 11 5 4.8 0.0 0.00 0.00 0.00 68 1013.0
20260508141814 11 351 4.8 0.0 0.00 0.00 0.00 69 1013.0
20260508141530 11 354 4.8 0.0 0.00 0.00 0.00 69 1013.0
20260508141246 11 316 4.8 0.0 0.00 0.00 0.00 69 1013.0
20260508140957 11 345 4.8 0.0 0.00 0.00 0.00 69 1013.1
20260508140654 11 343 6.4 0.0 0.00 0.00 0.00 69 1013.1
20260508140420 11 351 6.4 0.0 0.00 0.00 0.00 69 1013.2
20260508140134 11 343 6.4 0.0 0.00 0.00 0.00 69 1013.2
20260508135903 11 347 6.4 0.0 0.00 0.00 0.00 69 1013.1
20260508135606 11 338 4.8 0.0 0.00 0.00 0.00 68 1013.2
20260508135328 11 333 4.8 0.0 0.00 0.00 0.00 69 1013.0
20260508135047 11 10 4.8 0.0 0.00 0.00 0.00 69 1013.0
20260508134759 11 337 6.4 0.0 0.00 0.00 0.00 69 1013.0
20260508134503 11 335 6.4 0.0 0.00 0.00 0.00 69 1013.0
20260508134158 11 16 8.0 0.0 0.00 0.00 0.00 69 1013.0
20260508133914 11 330 4.8 0.0 0.00 0.00 0.00 70 1013.1
20260508133642 11 340 4.8 0.0 0.00 0.00 0.00 69 1013.1
20260508133350 11 350 4.8 0.0 0.00 0.00 0.00 69 1013.1
20260508133052 11 345 4.8 0.0 0.00 0.00 0.00 69 1013.1
20260508132811 11 345 6.4 0.0 0.00 0.00 0.00 69 1013.1
20260508132532 11 349 6.4 0.0 0.00 0.00 0.00 69 1013.1
20260508132309 11 330 6.4 0.0 0.00 0.00 0.00 69 1013.0
20260508132019 11 360 6.4 0.0 0.00 0.00 0.00 69 1013.0
20260508131719 11 337 6.4 0.0 0.00 0.00 0.00 69 1013.0
20260508131437 11 347 6.4 0.0 0.00 0.00 0.00 69 1013.0
20260508131149 11 344 6.4 0.0 0.00 0.00 0.00 68 1013.0
20260508130858 11 334 6.4 0.0 0.00 0.00 0.00 68 1013.1
20260508130612 11 338 6.4 0.0 0.00 0.00 0.00 68 1013.1
20260508130333 11 349 6.4 0.0 0.00 0.00 0.00 68 1013.0
20260508130058 11 329 4.8 0.0 0.00 0.00 0.00 68 1013.0
20260508125807 11 345 4.8 0.0 0.00 0.00 0.00 68 1013.0
20260508125541 11 357 3.2 0.0 0.00 0.00 0.00 69 1013.1
20260508125253 11 2 3.2 0.0 0.00 0.00 0.00 69 1013.0
20260508125011 11 309 4.8 0.0 0.00 0.00 0.00 69 1012.9
20260508124716 11 334 6.4 0.0 0.00 0.00 0.00 69 1012.9
20260508124436 11 326 6.4 0.0 0.00 0.00 0.00 69 1012.9
20260508124127 11 342 6.4 0.0 0.00 0.00 0.00 69 1012.9
20260508123839 10 318 6.4 0.0 0.00 0.00 0.00 69 1012.9
20260508123605 10 335 6.4 0.0 0.00 0.00 0.00 70 1013.0
20260508123329 10 330 6.4 0.0 0.00 0.00 0.00 69 1013.0
20260508123045 10 343 6.4 0.0 0.00 0.00 0.00 70 1013.0
20260508122756 10 360 6.4 0.0 0.00 0.00 0.00 70 1012.9
20260508122450 10 1 4.8 0.0 0.00 0.00 0.00 70 1012.9
20260508122219 10 318 3.2 0.0 0.00 0.00 0.00 71 1012.9
20260508121940 10 333 3.2 0.0 0.00 0.00 0.00 71 1012.8
20260508121713 10 332 3.2 0.0 0.00 0.00 0.00 71 1012.8
20260508121430 10 334 3.2 0.0 0.00 0.00 0.00 72 1012.9
20260508121135 10 335 3.2 0.0 0.00 0.00 0.00 72 1012.9
20260508120846 10 335 3.2 0.0 0.00 0.00 0.00 72 1012.8
20260508120602 9 332 3.2 0.0 0.00 0.00 0.00 72 1012.9
20260508120316 9 334 3.2 0.0 0.00 0.00 0.00 73 1012.9
20260508120029 9 324 3.2 0.0 0.00 0.00 0.00 73 1012.9
20260508115756 9 339 3.2 0.0 0.00 0.00 0.00 73 1012.8
20260508115510 9 342 4.8 0.0 0.00 0.00 0.00 73 1012.9
20260508115238 9 342 3.2 0.0 0.00 0.00 0.00 73 1012.9
20260508114943 9 338 3.2 0.0 0.00 0.00 0.00 73 1012.8
20260508114653 9 334 1.6 0.0 0.00 0.00 0.00 73 1012.8
20260508114401 9 351 0.0 0.0 0.00 0.00 0.00 73 1012.8
20260508114115 8 353 0.0 0.0 0.00 0.00 0.00 73 1012.9
20260508113822 8 339 0.0 0.0 0.00 0.00 0.00 74 1012.8
20260508113555 8 338 0.0 0.0 0.00 0.00 0.00 74 1012.8
20260508113312 8 316 0.0 0.0 0.00 0.00 0.00 74 1012.8
20260508113041 8 328 0.0 0.0 0.00 0.00 0.00 74 1012.7
20260508112736 8 331 0.0 0.0 0.00 0.00 0.00 74 1012.6
20260508112418 8 333 0.0 0.0 0.00 0.00 0.00 74 1012.5
20260508112134 8 333 0.0 0.0 0.00 0.00 0.00 74 1012.5
20260508111856 8 339 0.0 0.0 0.00 0.00 0.00 74 1012.5
20260508111601 8 332 0.0 0.0 0.00 0.00 0.00 74 1012.6
20260508111320 8 348 0.0 0.0 0.00 0.00 0.00 74 1012.6
20260508111045 8 337 1.6 0.0 0.00 0.00 0.00 74 1012.5
20260508110811 8 325 1.6 0.0 0.00 0.00 0.00 74 1012.5
20260508110526 8 325 1.6 0.0 0.00 0.00 0.00 74 1012.6
20260508110234 8 332 1.6 0.0 0.00 0.00 0.00 74 1012.6
20260508110004 8 326 1.6 0.0 0.00 0.00 0.00 74 1012.6
20260508105726 8 337 0.0 0.0 0.00 0.00 0.00 74 1012.6
20260508105500 8 337 0.0 0.0 0.00 0.00 0.00 75 1012.6
20260508105223 7 317 0.0 0.0 0.00 0.00 0.00 75 1012.6
20260508104918 7 315 0.0 0.0 0.00 0.00 0.00 75 1012.5
20260508104636 7 332 0.0 0.0 0.00 0.00 0.00 74 1012.6
20260508104343 7 353 0.0 0.0 0.00 0.00 0.00 75 1012.6
20260508104106 7 339 0.0 0.0 0.00 0.00 0.00 74 1012.6
20260508103822 7 339 0.0 0.0 0.00 0.00 0.00 74 1012.7
20260508103546 7 336 0.0 0.0 0.00 0.00 0.00 74 1012.6
20260508103301 7 330 0.0 0.0 0.00 0.00 0.00 74 1012.6
20260508103026 7 332 0.0 0.0 0.00 0.00 0.00 74 1012.6
20260508102725 7 335 0.0 0.0 0.00 0.00 0.00 74 1012.5
20260508102436 7 335 0.0 0.0 0.00 0.00 0.00 74 1012.5
20260508102143 7 6 0.0 0.0 0.00 0.00 0.00 74 1012.5
20260508101858 7 327 0.0 0.0 0.00 0.00 0.00 74 1012.5
20260508101613 7 354 0.0 0.0 0.00 0.00 0.00 74 1012.5
20260508101322 7 332 0.0 0.0 0.00 0.00 0.00 74 1012.4
20260508101035 7 331 0.0 0.0 0.00 0.00 0.00 75 1012.4
20260508100753 7 332 0.0 0.0 0.00 0.00 0.00 75 1012.4
20260508100457 7 332 0.0 0.0 0.00 0.00 0.00 75 1012.4
20260508100212 7 328 0.0 0.0 0.00 0.00 0.00 75 1012.3
20260508095928 7 328 0.0 0.0 0.00 0.00 0.00 75 1012.4
20260508095637 7 337 0.0 0.0 0.00 0.00 0.00 75 1012.4
20260508095336 7 337 0.0 0.0 0.00 0.00 0.00 75 1012.4
20260508095053 7 328 0.0 0.0 0.00 0.00 0.00 75 1012.4
20260508094745 7 328 0.0 0.0 0.00 0.00 0.00 75 1012.4
20260508094508 7 328 0.0 0.0 0.00 0.00 0.00 75 1012.4
20260508094225 7 328 0.0 0.0 0.00 0.00 0.00 75 1012.3
20260508093948 7 328 0.0 0.0 0.00 0.00 0.00 75 1012.4
20260508093703 7 327 0.0 0.0 0.00 0.00 0.00 75 1012.3
20260508093347 7 327 0.0 0.0 0.00 0.00 0.00 75 1012.3
20260508093042 7 327 0.0 0.0 0.00 0.00 0.00 75 1012.3
20260508092756 7 327 0.0 0.0 0.00 0.00 0.00 75 1012.3
20260508092507 7 327 0.0 0.0 0.00 0.00 0.00 75 1012.3
20260508092223 7 327 0.0 0.0 0.00 0.00 0.00 74 1012.3
20260508091932 7 326 0.0 0.0 0.00 0.00 0.00 74 1012.4
20260508091645 7 326 0.0 0.0 0.00 0.00 0.00 74 1012.4
20260508091332 8 326 0.0 0.0 0.00 0.00 0.00 74 1012.5
20260508091102 8 326 0.0 0.0 0.00 0.00 0.00 74 1012.4
20260508090819 8 326 0.0 0.0 0.00 0.00 0.00 74 1012.5
20260508090550 8 326 0.0 0.0 0.00 0.00 0.00 74 1012.5
20260508090309 8 325 0.0 0.0 0.00 0.00 0.00 74 1012.5
20260508090033 8 334 0.0 0.0 0.00 0.00 0.00 74 1012.5
20260508085738 8 327 0.0 0.0 0.00 0.00 0.00 74 1012.5
20260508085457 8 327 0.0 0.0 0.00 0.00 0.00 74 1012.5
20260508085228 8 327 0.0 0.0 0.00 0.00 0.00 74 1012.5
20260508084947 8 326 0.0 0.0 0.00 0.00 0.00 74 1012.5
20260508084700 8 326 0.0 0.0 0.00 0.00 0.00 74 1012.5
20260508084415 8 326 0.0 0.0 0.00 0.00 0.00 74 1012.6
20260508084145 8 326 0.0 0.0 0.00 0.00 0.00 74 1012.5
20260508083841 8 326 0.0 0.0 0.00 0.00 0.00 75 1012.5
20260508083600 8 325 0.0 0.0 0.00 0.00 0.00 75 1012.6
20260508083324 8 325 0.0 0.0 0.00 0.00 0.00 75 1012.5
20260508083034 8 324 0.0 0.0 0.00 0.00 0.00 75 1012.5
20260508082751 8 338 0.0 0.0 0.00 0.00 0.00 75 1012.5
20260508082506 8 334 0.0 0.0 0.00 0.00 0.00 76 1012.5
20260508082221 8 333 0.0 0.0 0.00 0.00 0.00 76 1012.5
20260508081934 8 334 0.0 0.0 0.00 0.00 0.00 76 1012.4
20260508081703 8 334 0.0 0.0 0.00 0.00 0.00 76 1012.5
20260508081429 8 333 0.0 0.0 0.00 0.00 0.00 76 1012.5
20260508081201 8 338 0.0 0.0 0.00 0.00 0.00 76 1012.5
20260508080916 8 338 0.0 0.0 0.00 0.00 0.00 76 1012.5
20260508080639 8 338 0.0 0.0 0.00 0.00 0.00 77 1012.5
20260508080412 8 338 0.0 0.0 0.00 0.00 0.00 77 1012.5
20260508080115 8 338 0.0 0.0 0.00 0.00 0.00 77 1012.5
20260508075839 8 338 0.0 0.0 0.00 0.00 0.00 78 1012.6
20260508075600 7 337 0.0 0.0 0.00 0.00 0.00 79 1012.5
20260508075317 7 11 0.0 0.0 0.00 0.00 0.00 79 1012.5
20260508074956 7 15 0.0 0.0 0.00 0.00 0.00 80 1012.6
20260508074711 7 15 0.0 0.0 0.00 0.00 0.00 80 1012.6
20260508074440 7 37 0.0 0.0 0.00 0.00 0.00 81 1012.6
20260508074208 7 37 0.0 0.0 0.00 0.00 0.00 82 1012.5
20260508073911 7 37 0.0 0.0 0.00 0.00 0.00 82 1012.5
20260508073627 7 38 0.0 0.0 0.00 0.00 0.00 83 1012.6
20260508073343 7 42 0.0 0.0 0.00 0.00 0.00 83 1012.6
20260508073102 7 42 0.0 0.0 0.00 0.00 0.00 84 1012.6
20260508072803 7 42 0.0 0.0 0.00 0.00 0.00 84 1012.6
20260508072524 7 42 0.0 0.0 0.00 0.00 0.00 84 1012.6
20260508072243 7 42 0.0 0.0 0.00 0.00 0.00 84 1012.6
20260508072016 7 42 0.0 0.0 0.00 0.00 0.00 84 1012.6
20260508071734 7 42 0.0 0.0 0.00 0.00 0.00 84 1012.6
20260508071440 7 42 0.0 0.0 0.00 0.00 0.00 84 1012.7
20260508071204 7 42 0.0 0.0 0.00 0.00 0.00 84 1012.7
20260508070925 7 42 0.0 0.0 0.00 0.00 0.00 84 1012.7
20260508070641 7 42 0.0 0.0 0.00 0.00 0.00 84 1012.7
20260508070403 7 42 0.0 0.0 0.00 0.00 0.00 84 1012.8
20260508070122 7 42 0.0 0.0 0.00 0.00 0.00 84 1012.8
20260508065837 7 42 0.0 0.0 0.00 0.00 0.00 84 1012.9
20260508065553 7 42 0.0 0.0 0.00 0.00 0.00 84 1012.9
20260508065259 8 42 0.0 0.0 0.00 0.00 0.00 84 1013.0
20260508065008 8 42 0.0 0.0 0.00 0.00 0.00 84 1013.0
20260508064726 8 42 0.0 0.0 0.00 0.00 0.00 83 1013.0
20260508064442 8 42 0.0 0.0 0.00 0.00 0.00 83 1012.9
20260508064125 8 42 0.0 0.0 0.00 0.00 0.00 83 1012.8
20260508063846 8 42 0.0 0.0 0.00 0.00 0.00 82 1012.9
20260508063605 8 42 0.0 0.0 0.00 0.00 0.00 82 1012.9
20260508063327 8 42 0.0 0.0 0.00 0.00 0.00 82 1013.0
20260508063034 8 42 0.0 0.0 0.00 0.00 0.00 82 1012.9
20260508062745 8 42 0.0 0.0 0.00 0.00 0.00 81 1012.9
20260508062441 8 42 0.0 0.0 0.00 0.00 0.00 81 1013.0
20260508062131 9 42 0.0 0.0 0.00 0.00 0.00 80 1012.9
20260508061849 9 42 0.0 0.0 0.00 0.00 0.00 80 1013.0
20260508061608 9 0.0 0.0 0.00 0.00 0.00 80 1013.0
20260508061324 9 0.0 0.0 0.00 0.00 0.00 79 1013.0
20260508061033 -17 0.0 0.0 0.00 0.00 0.00 1013.1
20260508060806 -17 0.0 0.0 0.00 0.00 0.00 1013.1
20260508060535 -17 0.0 0.0 0.00 0.00 0.00 1013.2
20260508060308 -17 0.0 0.0 0.00 0.00 0.00 1013.2
20260508060039 -17 0.0 0.0 0.00 0.00 0.00 1013.2
20260508055852 -17 0.0 0.0 0.00 0.00 0.00 1013.5
20260508055715 -17 0.0 0.0 0.00 0.00 0.00 1013.7
20260508055524 -17 0.0 0.0 0.00 0.00 0.00 1013.8
20260508055338 -17 0.0 0.0 0.00 0.00 0.00 1013.7
20260508055146 -17 0.0 0.0 0.00 0.00 0.00 1013.6
20260508055016 -17 0.0 0.0 0.00 0.00 0.00 1013.7
20260508054826 -17 0.0 0.0 0.00 0.00 0.00 1013.8
20260508054654 -17 0.0 0.0 0.00 0.00 0.00 1013.8
20260508054510 -17 0.0 0.0 0.00 0.00 0.00 1013.8
20260508054321 -17 0.0 0.0 0.00 0.00 0.00 1013.9
20260508054127 -17 0.0 0.0 0.00 0.00 0.00 1014.0
20260508053953 -17 0.0 0.0 0.00 0.00 0.00 1014.0
20260508053804 -17 0.0 0.0 0.00 0.00 0.00 1014.0
20260508053630 -17 0.0 0.0 0.00 0.00 0.00 1014.0
20260508053457 -17 0.0 0.0 0.00 0.00 0.00 1013.9
20260508053258 -17 0.0 0.0 0.00 0.00 0.00 1013.9
20260508053128 -17 0.0 0.0 0.00 0.00 0.00 1014.0
20260508052957 -17 0.0 0.0 0.00 0.00 0.00 1013.9
20260508052746 -17 0.0 0.0 0.00 0.00 0.00 1014.0
20260508052613 -17 0.0 0.0 0.00 0.00 0.00 1014.0
20260508052440 -17 0.0 0.0 0.00 0.00 0.00 1013.9
20260508052241 -17 0.0 0.0 0.00 0.00 0.00 1013.8
20260508052107 -17 0.0 0.0 0.00 0.00 0.00 1013.7
20260508051914 -17 0.0 0.0 0.00 0.00 0.00 1013.5
20260508051724 -17 0.0 0.0 0.00 0.00 0.00 1013.5
20260508051550 -17 0.0 0.0 0.00 0.00 0.00 1013.4
20260508051417 -17 0.0 0.0 0.00 0.00 0.00 1013.3
20260508051202 9 0.0 0.0 0.00 0.00 0.00 73 1013.2
20260508051010 9 0.0 0.0 0.00 0.00 0.00 73 1013.1
20260508050840 9 0.0 0.0 0.00 0.00 0.00 73 1013.1
20260508050653 9 0.0 0.0 0.00 0.00 0.00 73 1013.1
20260508050523 9 0.0 0.0 0.00 0.00 0.00 73 1013.1
20260508050353 9 357 0.0 0.0 0.00 0.00 0.00 73 1013.1
20260508050200 9 357 0.0 0.0 0.00 0.00 0.00 73 1013.0
20260508050030 9 357 0.0 0.0 0.00 0.00 0.00 73 1013.1
20260508045855 9 357 0.0 0.0 0.00 0.00 0.00 73 1013.1
20260508045703 9 357 0.0 0.0 0.00 0.00 0.00 73 1013.0
20260508045531 9 357 0.0 0.0 0.00 0.00 0.00 73 1013.1
20260508045358 9 357 0.0 0.0 0.00 0.00 0.00 72 1013.1
20260508045201 9 357 0.0 0.0 0.00 0.00 0.00 73 1013.1
20260508045029 9 357 0.0 0.0 0.00 0.00 0.00 73 1013.1
20260508044856 9 357 0.0 0.0 0.00 0.00 0.00 73 1013.2
20260508044707 9 357 0.0 0.0 0.00 0.00 0.00 73 1013.2
20260508044533 9 357 0.0 0.0 0.00 0.00 0.00 73 1013.1
20260508044400 9 357 0.0 0.0 0.00 0.00 0.00 73 1013.1
20260508044205 9 357 0.0 0.0 0.00 0.00 0.00 73 1013.1
20260508044032 9 357 0.0 0.0 0.00 0.00 0.00 73 1013.1
20260508043859 9 357 0.0 0.0 0.00 0.00 0.00 73 1013.1
20260508043652 9 357 0.0 0.0 0.00 0.00 0.00 73 1013.1
20260508043518 10 357 0.0 0.0 0.00 0.00 0.00 73 1013.1
20260508043348 9 357 0.0 0.0 0.00 0.00 0.00 73 1013.1
20260508043149 9 357 0.0 0.0 0.00 0.00 0.00 72 1013.1
20260508043016 10 357 0.0 0.0 0.00 0.00 0.00 72 1013.1
20260508042845 9 357 0.0 0.0 0.00 0.00 0.00 72 1013.1
20260508042656 9 357 0.0 0.0 0.00 0.00 0.00 72 1013.0
20260508042505 10 357 0.0 0.0 0.00 0.00 0.00 72 1013.0
20260508042331 10 357 0.0 0.0 0.00 0.00 0.00 71 1013.0
20260508042142 10 357 0.0 0.0 0.00 0.00 0.00 71 1013.0
20260508042000 10 357 0.0 0.0 0.00 0.00 0.00 71 1013.1
20260508041826 10 357 0.0 0.0 0.00 0.00 0.00 70 1013.1
20260508041636 10 357 0.0 0.0 0.00 0.00 0.00 70 1013.1
20260508041443 10 357 0.0 0.0 0.00 0.00 0.00 70 1013.1
20260508041310 10 357 0.0 0.0 0.00 0.00 0.00 70 1013.2
20260508041058 10 357 0.0 0.0 0.00 0.00 0.00 70 1013.2
20260508040925 10 357 0.0 0.0 0.00 0.00 0.00 70 1013.2
20260508040742 10 357 0.0 0.0 0.00 0.00 0.00 70 1013.3
20260508040532 10 357 0.0 0.0 0.00 0.00 0.00 70 1013.3
20260508040358 10 357 0.0 0.0 0.00 0.00 0.00 70 1013.3
20260508040225 10 357 0.0 0.0 0.00 0.00 0.00 70 1013.3
20260508040055 10 357 0.0 0.0 0.00 0.00 0.00 70 1013.3
20260508035756 10 357 0.0 0.0 0.00 0.00 0.00 71 1013.3
20260508035508 10 357 0.0 0.0 0.00 0.00 0.00 71 1013.3
20260508035218 10 357 0.0 0.0 0.00 0.00 0.00 71 1013.3
20260508034942 10 357 0.0 0.0 0.00 0.00 0.00 69 1013.4
20260508034659 10 357 0.0 0.0 0.00 0.00 0.00 69 1013.4
20260508034414 10 357 0.0 0.0 0.00 0.00 0.00 68 1013.5
20260508034137 10 357 0.0 0.0 0.00 0.00 0.00 68 1013.5
20260508033855 10 357 0.0 0.0 0.00 0.00 0.00 67 1013.5
20260508033612 10 357 0.0 0.0 0.00 0.00 0.00 67 1013.4
20260508033335 10 357 0.0 0.0 0.00 0.00 0.00 66 1013.4
20260508033052 10 357 0.0 0.0 0.00 0.00 0.00 66 1013.4
20260508032758 10 357 0.0 0.0 0.00 0.00 0.00 66 1013.2
20260508032513 10 357 0.0 0.0 0.00 0.00 0.00 65 1013.4
20260508032229 10 357 0.0 0.0 0.00 0.00 0.00 65 1013.3
20260508032001 10 357 0.0 0.0 0.00 0.00 0.00 65 1013.3
20260508031712 10 357 0.0 0.0 0.00 0.00 0.00 65 1013.3
20260508031435 10 357 0.0 0.0 0.00 0.00 0.00 65 1013.3
20260508031155 10 357 0.0 0.0 0.00 0.00 0.00 65 1013.3
20260508030906 10 357 0.0 0.0 0.00 0.00 0.00 64 1013.3
20260508030610 10 357 0.0 0.0 0.00 0.00 0.00 64 1013.2
20260508030326 10 357 0.0 0.0 0.00 0.00 0.00 65 1013.2
20260508030042 10 357 0.0 0.0 0.00 0.00 0.00 64 1013.2
20260508025812 10 357 0.0 0.0 0.00 0.00 0.00 64 1013.2
20260508025527 10 349 0.0 0.0 0.00 0.00 0.00 64 1013.4
20260508025242 10 349 0.0 0.0 0.00 0.00 0.00 64 1013.5
20260508025001 10 349 0.0 0.0 0.00 0.00 0.00 64 1013.6
20260508024716 10 349 0.0 0.0 0.00 0.00 0.00 64 1013.6
20260508024423 10 349 0.0 0.0 0.00 0.00 0.00 64 1013.6
20260508024142 10 349 0.0 0.0 0.00 0.00 0.00 64 1013.6
20260508023857 10 349 0.0 0.0 0.00 0.00 0.00 63 1013.4
20260508023605 10 349 0.0 0.0 0.00 0.00 0.00 63 1013.3
20260508023318 10 349 0.0 0.0 0.00 0.00 0.00 62 1013.3
20260508023050 10 349 0.0 0.0 0.00 0.00 0.00 62 1013.4
20260508022817 10 349 0.0 0.0 0.00 0.00 0.00 61 1013.2
20260508022532 10 349 0.0 0.0 0.00 0.00 0.00 61 1013.2
20260508022247 11 349 0.0 0.0 0.00 0.00 0.00 60 1013.2
20260508022018 11 349 0.0 0.0 0.00 0.00 0.00 59 1013.2
20260508021724 11 349 0.0 0.0 0.00 0.00 0.00 59 1013.2
20260508021456 11 349 0.0 0.0 0.00 0.00 0.00 59 1013.2
20260508021226 11 349 0.0 0.0 0.00 0.00 0.00 59 1013.2
20260508020941 11 349 0.0 0.0 0.00 0.00 0.00 58 1013.2
20260508020657 11 349 0.0 0.0 0.00 0.00 0.00 58 1013.2
20260508020403 11 349 0.0 0.0 0.00 0.00 0.00 57 1013.1
20260508020119 11 349 0.0 0.0 0.00 0.00 0.00 57 1013.2
20260508015820 11 349 0.0 0.0 0.00 0.00 0.00 56 1013.1
20260508015524 11 349 0.0 0.0 0.00 0.00 0.00 56 1013.1
20260508015221 11 349 0.0 0.0 0.00 0.00 0.00 56 1013.1
20260508014933 11 349 0.0 0.0 0.00 0.00 0.00 56 1013.1
20260508014647 11 349 1.6 0.0 0.00 0.00 0.00 56 1013.1
20260508014357 11 349 1.6 0.0 0.00 0.00 0.00 56 1013.0
20260508014130 11 349 1.6 0.0 0.00 0.00 0.00 56 1012.9
20260508013849 11 349 1.6 0.0 0.00 0.00 0.00 56 1013.0
20260508013609 11 8 0.0 0.0 0.00 0.00 0.00 57 1013.1
20260508013308 11 8 0.0 0.0 0.00 0.00 0.00 57 1013.3
20260508013020 11 8 0.0 0.0 0.00 0.00 0.00 57 1013.3
20260508012754 11 8 0.0 0.0 0.00 0.00 0.00 57 1013.2
20260508012509 11 8 0.0 0.0 0.00 0.00 0.00 57 1013.1
20260508012205 12 8 0.0 0.0 0.00 0.00 0.00 57 1013.1
20260508011920 12 8 0.0 0.0 0.00 0.00 0.00 56 1013.1
20260508011641 12 8 0.0 0.0 0.00 0.00 0.00 56 1013.1
20260508011334 12 8 0.0 0.0 0.00 0.00 0.00 56 1013.0
20260508011031 12 8 0.0 0.0 0.00 0.00 0.00 55 1013.1
20260508010725 12 8 0.0 0.0 0.00 0.00 0.00 54 1013.0
20260508010442 12 8 0.0 0.0 0.00 0.00 0.00 53 1013.0
20260508010216 12 8 0.0 0.0 0.00 0.00 0.00 53 1013.0
20260508005929 12 8 0.0 0.0 0.00 0.00 0.00 52 1013.0
20260508005627 12 28 0.0 0.0 0.00 0.00 0.00 54 1013.0
20260508005340 12 331 0.0 0.0 0.00 0.00 0.00 55 1013.0
20260508005024 12 354 0.0 0.0 0.00 0.00 0.00 54 1013.0
20260508004738 12 354 0.0 0.0 0.00 0.00 0.00 54 1013.0
20260508004506 12 354 0.0 0.0 0.00 0.00 0.00 53 1013.0
20260508004228 12 354 0.0 0.0 0.00 0.00 0.00 54 1013.0
20260508004001 12 354 0.0 0.0 0.00 0.00 0.00 53 1013.0
20260508003732 12 354 0.0 0.0 0.00 0.00 0.00 53 1012.9
20260508003441 12 354 0.0 0.0 0.00 0.00 0.00 53 1013.0
20260508003205 12 354 0.0 0.0 0.00 0.00 0.00 52 1013.0
20260508002928 12 354 0.0 0.0 0.00 0.00 0.00 52 1013.0
20260508002657 12 354 0.0 0.0 0.00 0.00 0.00 51 1012.8
20260508002350 12 354 0.0 0.0 0.00 0.00 0.00 51 1012.8
20260508002104 12 354 0.0 0.0 0.00 0.00 0.00 51 1012.8
20260508001838 12 354 0.0 0.0 0.00 0.00 0.00 51 1012.8
20260508001534 12 354 0.0 0.0 0.00 0.00 0.00 50 1012.8
20260508001308 12 354 0.0 0.0 0.00 0.00 0.00 50 1012.8
20260508001025 12 354 0.0 0.0 0.00 0.00 0.00 50 1012.8
20260508000742 12 355 0.0 0.0 0.00 0.00 0.00 50 1012.8
20260508000443 13 355 0.0 0.0 0.00 0.00 0.00 50 1012.8
20260508000140 13 355 0.0 0.0 0.00 0.00 0.00 49 1012.7
20260507235900 13 355 0.0 0.0 0.00 0.00 0.00 49 1012.7
20260507235554 13 355 1.6 0.0 0.00 0.00 0.00 48 1012.7
20260507235326 13 355 1.6 0.0 0.00 0.00 0.00 47 1012.6
20260507235042 13 353 1.6 0.0 0.00 0.00 0.00 47 1012.5
20260507234808 13 16 3.2 0.0 0.00 0.00 0.00 45 1012.6
20260507234517 14 349 1.6 0.0 0.00 0.00 0.00 45 1012.6
20260507234233 14 335 0.0 0.0 0.00 0.00 0.00 45 1012.5
20260507233939 14 352 0.0 0.0 0.00 0.00 0.00 44 1012.5
20260507233700 14 355 0.0 0.0 0.00 0.00 0.00 45 1012.5
20260507233432 14 18 1.6 0.0 0.00 0.00 0.00 46 1012.5
20260507233145 14 18 1.6 0.0 0.00 0.00 0.00 45 1012.5
20260507232849 14 34 1.6 0.0 0.00 0.00 0.00 44 1012.5
20260507232616 14 16 1.6 0.0 0.00 0.00 0.00 44 1012.5
20260507232309 14 26 1.6 0.0 0.00 0.00 0.00 44 1012.6
20260507232036 14 31 1.6 0.0 0.00 0.00 0.00 45 1012.6
20260507231742 14 44 1.6 0.0 0.00 0.00 0.00 44 1012.6
20260507231501 14 45 1.6 0.0 0.00 0.00 0.00 45 1012.6
20260507231223 14 360 3.2 0.0 0.00 0.00 0.00 45 1012.6
20260507230944 14 14 3.2 0.0 0.00 0.00 0.00 44 1012.5
20260507230653 14 33 3.2 0.0 0.00 0.00 0.00 43 1012.5
20260507230428 15 22 3.2 0.0 0.00 0.00 0.00 43 1012.5
20260507230146 15 36 3.2 0.0 0.00 0.00 0.00 43 1012.6
20260507225908 15 11 1.6 0.0 0.00 0.00 0.00 45 1012.6
20260507225623 15 46 3.2 0.0 0.00 0.00 0.00 44 1012.6
20260507225327 15 13 4.8 0.0 0.00 0.00 0.00 44 1012.7
20260507225025 15 34 4.8 0.0 0.00 0.00 0.00 43 1012.7
20260507224742 15 29 4.8 0.0 0.00 0.00 0.00 44 1012.7
20260507224509 15 20 6.4 0.0 0.00 0.00 0.00 44 1012.7
20260507224230 15 345 6.4 0.0 0.00 0.00 0.00 44 1012.7
20260507223921 15 338 4.8 0.0 0.00 0.00 0.00 42 1012.7
20260507223642 15 122 4.8 0.0 0.00 0.00 0.00 42 1012.7
20260507223405 15 357 1.6 0.0 0.00 0.00 0.00 42 1012.9
20260507223127 15 351 1.6 0.0 0.00 0.00 0.00 41 1012.9
20260507222833 15 315 0.0 0.0 0.00 0.00 0.00 42 1012.9
20260507222528 15 64 0.0 0.0 0.00 0.00 0.00 43 1012.8
20260507222241 15 21 0.0 0.0 0.00 0.00 0.00 44 1012.8
20260507221949 15 21 0.0 0.0 0.00 0.00 0.00 43 1012.8
20260507221712 15 19 0.0 0.0 0.00 0.00 0.00 44 1012.9
20260507221441 14 19 0.0 0.0 0.00 0.00 0.00 44 1012.9
20260507221134 14 20 0.0 0.0 0.00 0.00 0.00 43 1012.9
20260507220908 14 36 0.0 0.0 0.00 0.00 0.00 44 1012.9
20260507220632 14 39 0.0 0.0 0.00 0.00 0.00 45 1012.9
20260507220333 14 35 1.6 0.0 0.00 0.00 0.00 43 1012.9
20260507220054 14 12 1.6 0.0 0.00 0.00 0.00 43 1012.9
20260507215808 14 7 1.6 0.0 0.00 0.00 0.00 43 1013.0
20260507215456 14 6 1.6 0.0 0.00 0.00 0.00 43 1013.0
20260507215207 14 24 0.0 0.0 0.00 0.00 0.00 43 1012.9
20260507214941 14 14 0.0 0.0 0.00 0.00 0.00 42 1012.9
20260507214655 15 33 1.6 0.0 0.00 0.00 0.00 43 1012.9
20260507214415 15 32 1.6 0.0 0.00 0.00 0.00 42 1012.8
20260507214059 15 24 3.2 0.0 0.00 0.00 0.00 42 1012.8
20260507213815 15 20 4.8 0.0 0.00 0.00 0.00 41 1012.7
20260507213516 15 24 6.4 0.0 0.00 0.00 0.00 42 1012.8
20260507213201 15 130 8.0 0.0 0.00 0.00 0.00 42 1012.8
20260507212922 15 332 8.0 0.0 0.00 0.00 0.00 43 1012.7
20260507212652 15 41 8.0 0.0 0.00 0.00 0.00 42 1012.8
20260507212411 15 37 3.2 0.0 0.00 0.00 0.00 43 1012.8
20260507212123 14 23 3.2 0.0 0.00 0.00 0.00 43 1012.7
20260507211839 14 60 1.6 0.0 0.00 0.00 0.00 43 1012.7
20260507211557 14 24 0.0 0.0 0.00 0.00 0.00 44 1012.7
20260507211317 14 161 0.0 0.0 0.00 0.00 0.00 46 1012.7
20260507211034 14 182 0.0 0.0 0.00 0.00 0.00 45 1012.7
20260507210740 14 182 1.6 0.0 0.00 0.00 0.00 44 1012.7
20260507210455 14 164 1.6 0.0 0.00 0.00 0.00 44 1012.6
20260507210128 14 165 1.6 0.0 0.00 0.00 0.00 44 1012.7
20260507205846 15 46 0.0 0.0 0.00 0.00 0.00 43 1012.6
20260507205616 15 14 0.0 0.0 0.00 0.00 0.00 43 1012.6
20260507205307 15 58 1.6 0.0 0.00 0.00 0.00 43 1012.6
20260507204950 15 30 1.6 0.0 0.00 0.00 0.00 43 1012.6
20260507204716 15 31 1.6 0.0 0.00 0.00 0.00 48 1012.6
20260507204430 15 114 1.6 0.0 0.00 0.00 0.00 44 1012.5
20260507204155 15 54 1.6 0.0 0.00 0.00 0.00 43 1012.6
20260507203909 15 41 1.6 0.0 0.00 0.00 0.00 43 1012.7
20260507203628 15 159 1.6 0.0 0.00 0.00 0.00 43 1012.6
20260507203343 15 169 1.6 0.0 0.00 0.00 0.00 45 1012.6
20260507203100 15 7 0.0 0.0 0.00 0.00 0.00 44 1012.7
20260507202818 15 278 0.0 0.0 0.00 0.00 0.00 46 1012.6
20260507202524 15 142 0.0 0.0 0.00 0.00 0.00 43 1012.5
20260507202238 15 36 0.0 0.0 0.00 0.00 0.00 45 1012.6
20260507201946 15 34 0.0 0.0 0.00 0.00 0.00 43 1012.7
20260507201709 15 147 0.0 0.0 0.00 0.00 0.00 45 1012.5
20260507201353 15 26 0.0 0.0 0.00 0.00 0.00 42 1012.6
20260507201112 15 27 1.6 0.0 0.00 0.00 0.00 45 1012.6
20260507200832 15 130 1.6 0.0 0.00 0.00 0.00 46 1012.7
20260507200531 15 73 1.6 0.0 0.00 0.00 0.00 46 1012.8
20260507200237 15 69 1.6 0.0 0.00 0.00 0.00 46 1012.9
20260507195959 15 14 0.0 0.0 0.00 0.00 0.00 47 1012.9
20260507195720 15 85 0.0 0.0 0.00 0.00 0.00 45 1012.8
20260507195439 14 49 0.0 0.0 0.00 0.00 0.00 46 1012.8
20260507195208 14 24 1.6 0.0 0.00 0.00 0.00 45 1012.8
20260507194920 14 23 1.6 0.0 0.00 0.00 0.00 43 1012.9